Fuji-OSCAR-12

operational
NORAD ID: 16909 Int'l Des: 1986-061 Owner: JARL Country: J
LEOCIRCULAR

Fuji-OSCAR-12について

説明を読み込み中...

リアルタイム位置

3D地球を読み込み中...

次回通過

高度履歴

Altitude vs Time

uPlot chart will show altitude changes over time

軌道要素

1 16909U 86061B 26062.52251671 -.00000075 00000-0 15396-3 0 9991
2 16909 50.0141 118.2172 0011053 252.1929 246.9104 12.44485579798931
Epoch: Mar 3, 2026 • Age: 21 hours

現在のステータス

高度 1495.3 km
速度 7.12 km/s
衛星直下点 -48.25°S, 108.41°W
打ち上げ日 Aug 12, 1986
運用期間 39.5 years
タイプ other

技術仕様

分類 Payload
質量 50.00 kg
乾燥質量 50.00 kg
総質量 50.00 kg
長さ 0.50 m
直径 0.40 m
スパン 0.50 m
形状 Poly
製造者 JARL
バスタイプ JAS
フェーズステータス In Orbit
所有者/国 JARL/J

大規模コンステレーション

Loading constellations...